Waarnemingen

Advertentie
Mijn weer
Montauban, Frankrijk (7540): temperatuur & dauwpunt: 09.10.2019 21:00:00 - 15.10.2019 21:00:00 (CEST)Montauban, Frankrijk (7540): temperatuur 5cm: 09.10.2019 21:00:00 - 15.10.2019 21:00:00 (CEST)Montauban, Frankrijk (7540): temperatuur -20cm & temperatuur -100cm: 09.10.2019 21:00:00 - 15.10.2019 21:00:00 (CEST)Montauban, Frankrijk (7540): windsnelheid & windstoten: 09.10.2019 21:00:00 - 15.10.2019 21:00:00 (CEST)Montauban, Frankrijk (7540): windrichting: 09.10.2019 21:00:00 - 15.10.2019 21:00:00 (CEST)Montauban, Frankrijk (7540): luchtdruk: 09.10.2019 21:00:00 - 15.10.2019 21:00:00 (CEST)Montauban, Frankrijk (7540): zicht: 09.10.2019 21:00:00 - 15.10.2019 21:00:00 (CEST)Montauban, Frankrijk (7540): Zonneschijnduur: 09.10.2019 21:00:00 - 15.10.2019 21:00:00 (CEST)Montauban, Frankrijk (7540): neerslag: 09.10.2019 21:00:00 - 15.10.2019 21:00:00 (CEST)
Datum & Tijd tt [°C] td [°C] tt 5cm [°C] tt -20cm [°C] tt -100cm [°C] ff [km/u] ff [kn] fx [km/u] fx [kn] dd ppp [hPa] vv [km] sd [min] rr [mm]
15.10.2019 21:00:00 - - - - - - - - - - - - - -
15.10.2019 20:00:00 13,9 10,5 12,6 18,2 19,0 6 4 22 12 WZW 1019,0 20 0 0,0
15.10.2019 19:00:00 15,0 10,0 14,6 18,1 19,0 19 10 42 23 W 1018,4 20 0 0,0
15.10.2019 18:00:00 16,9 8,3 17,1 18,1 18,9 14 7 36 19 W 1017,0 20 11 0,0
15.10.2019 17:00:00 17,3 8,2 17,5 18,0 19,0 19 11 41 22 W 1016,6 20 42 0,0
15.10.2019 16:00:00 18,1 8,1 17,8 18,0 19,0 24 13 44 24 W 1016,6 20 36 0,0
15.10.2019 15:00:00 17,2 8,3 18,0 18,0 19,0 24 13 41 22 WNW 1016,5 20 19 0,0
15.10.2019 14:00:00 16,8 9,0 15,8 18,0 19,0 19 10 38 21 W 1016,8 20 27 0,0
15.10.2019 13:00:00 15,7 9,6 15,2 18,0 19,0 23 12 39 21 W 1016,8 20 33 0,0
15.10.2019 12:00:00 13,9 9,7 14,3 18,1 19,0 23 12 37 20 W 1016,8 20 37 0,0
15.10.2019 11:00:00 13,0 10,4 11,7 18,2 19,0 16 9 28 15 W 1016,3 20 14 0,0
15.10.2019 10:00:00 11,9 10,1 11,1 18,3 19,0 13 7 24 13 WZW 1015,6 20 0 0,4
15.10.2019 09:00:00 11,6 10,2 10,9 18,3 18,9 8 5 22 12 W 1014,9 20 0 0,2
15.10.2019 08:00:00 11,7 9,9 11,2 18,5 19,0 12 7 32 17 W 1013,9 20 0 0,0
15.10.2019 07:00:00 11,9 9,8 11,5 18,5 18,9 17 9 31 17 W 1013,5 20 0 0,0
15.10.2019 06:00:00 12,4 11,0 11,8 18,6 18,9 13 7 33 18 W 1013,2 20 0 1,3
15.10.2019 05:00:00 13,0 11,7 12,5 18,7 18,9 17 9 29 16 W 1012,6 15 0 4,0
15.10.2019 04:00:00 13,5 12,2 12,8 18,8 18,9 10 5 18 10 WZW 1011,9 20 0 0,2
15.10.2019 03:00:00 13,8 12,4 13,1 18,9 19,0 8 5 25 13 W 1011,8 18 0 0,8
15.10.2019 02:00:00 14,5 12,7 14,2 18,9 18,9 17 9 26 14 WNW 1011,7 20 0 0,0
15.10.2019 01:00:00 15,1 13,8 14,4 19,0 18,9 12 6 22 12 WNW 1011,1 20 0 0,0
15.10.2019 00:00:00 15,2 14,1 14,6 19,0 18,9 3 2 13 7 ZZW 1010,2 17 0 0,4
14.10.2019 23:00:00 15,3 14,0 14,8 18,9 18,9 5 3 16 9 N 1009,4 20 0 0,4
14.10.2019 22:00:00 15,3 14,2 14,8 18,8 18,9 14 7 53 29 WNW 1009,1 10 0 16,4
14.10.2019 21:00:00 19,6 13,1 19,0 19,3 18,9 32 18 54 29 WNW 1008,2 20 0 0,0
14.10.2019 20:00:00 21,9 15,0 20,7 19,2 18,9 17 9 29 16 ZO 1006,9 20 0 0,0
14.10.2019 19:00:00 22,4 15,0 21,5 19,2 18,9 18 10 44 24 ZO 1007,0 20 11 0,0
14.10.2019 18:00:00 22,8 15,1 20,9 19,2 18,9 24 13 38 20 ZZO 1007,3 20 0 0,2
14.10.2019 17:00:00 23,0 15,3 19,4 19,1 18,9 24 13 39 21 ZZO 1008,3 20 0 0,0
14.10.2019 16:00:00 23,5 15,3 20,1 19,1 18,9 8 4 41 22 ZZW 1009,5 18 0 0,0
14.10.2019 15:00:00 24,3 14,4 25,2 19,0 18,9 29 16 53 29 ZZO 1008,3 20 0 0,0
14.10.2019 14:00:00 23,8 14,8 24,3 19,0 18,9 25 14 54 29 ZZO 1008,5 20 0 0,0
14.10.2019 13:00:00 23,8 14,5 23,7 19,0 18,9 31 17 63 34 ZZO 1008,7 20 0 0,0
14.10.2019 12:00:00 23,7 14,4 24,3 19,0 18,9 33 18 62 33 ZZO 1009,1 20 6 0,0
14.10.2019 11:00:00 23,8 14,8 24,2 19,1 18,9 37 20 68 37 ZZO 1009,4 19 60 0,0
14.10.2019 10:00:00 21,9 14,5 20,5 19,1 18,9 24 13 47 26 ZZO 1010,2 20 60 0,0
14.10.2019 09:00:00 20,1 14,0 18,0 19,2 18,9 24 13 45 24 ZO 1010,3 20 28 0,0
14.10.2019 08:00:00 19,3 14,1 17,7 19,3 18,9 17 9 32 17 ZO 1010,9 20 0 0,0
14.10.2019 07:00:00 18,9 14,2 15,9 19,3 18,9 13 7 24 13 OZO 1011,3 20 0 0,0
14.10.2019 06:00:00 18,8 14,3 16,1 19,4 18,9 5 3 20 11 OZO 1012,2 20 0 0,0
14.10.2019 05:00:00 19,4 14,2 17,4 19,4 18,9 6 3 27 15 ZO 1011,9 20 0 0,0
14.10.2019 04:00:00 20,2 14,8 18,9 19,5 18,9 16 8 36 19 ZO 1011,8 20 0 0,0
14.10.2019 03:00:00 20,7 15,0 19,5 19,5 18,9 17 9 36 20 ZO 1011,9 20 0 0,0
14.10.2019 02:00:00 20,6 15,2 18,9 19,6 18,9 12 7 28 15 OZO 1012,3 20 0 0,0
14.10.2019 01:00:00 20,2 15,2 18,9 19,6 18,8 12 6 31 17 OZO 1012,8 20 0 0,0
14.10.2019 00:00:00 20,2 14,8 18,8 19,6 18,9 14 8 30 16 ZO 1013,8 20 0 0,0
13.10.2019 23:00:00 20,4 14,7 19,2 19,6 18,9 15 8 28 15 ZO 1014,0 20 0 0,0
13.10.2019 22:00:00 20,7 15,3 19,6 19,6 18,9 18 10 31 17 ZO 1014,0 20 0 0,0
13.10.2019 21:00:00 21,1 15,4 20,0 19,5 18,9 16 8 35 19 ZO 1014,0 20 0 0,0
13.10.2019 20:00:00 21,6 15,4 20,6 19,4 18,9 16 9 38 21 ZO 1013,8 20 0 0,0
13.10.2019 19:00:00 22,8 15,1 22,1 19,3 18,9 16 8 38 20 ZO 1013,4 20 39 0,0
13.10.2019 18:00:00 24,8 15,1 26,5 19,1 18,9 24 13 42 23 ZO 1012,9 20 60 0,0
13.10.2019 17:00:00 26,1 14,9 28,9 18,9 18,9 29 16 45 24 ZO 1012,5 20 60 0,0
13.10.2019 16:00:00 27,7 15,4 31,5 18,8 18,9 23 12 41 22 ZO 1012,4 20 60 0,0
13.10.2019 15:00:00 27,9 14,9 32,1 18,6 18,9 23 12 36 19 OZO 1012,5 20 60 0,0
13.10.2019 14:00:00 27,9 14,9 30,8 18,5 18,9 18 10 39 21 ZO 1013,2 20 60 0,0
13.10.2019 13:00:00 27,1 15,1 29,2 18,4 18,9 26 14 46 25 ZZO 1013,7 20 60 0,0
13.10.2019 12:00:00 25,7 15,4 27,2 18,4 18,9 24 13 44 24 ZO 1013,8 20 60 0,0
13.10.2019 11:00:00 24,2 15,7 25,1 18,4 18,9 27 15 45 24 ZO 1014,2 20 60 0,0
13.10.2019 10:00:00 22,9 15,7 22,2 18,5 18,9 19 10 46 25 ZO 1013,6 20 60 0,0
13.10.2019 09:00:00 20,7 15,3 17,2 18,5 18,9 12 7 22 12 ZO 1013,4 20 33 0,0
13.10.2019 08:00:00 18,8 14,3 16,4 18,6 18,9 9 5 22 12 ZO 1013,4 20 0 0,0
13.10.2019 07:00:00 19,2 14,5 17,8 18,6 18,9 12 6 24 13 ZO 1013,3 20 0 0,0
13.10.2019 06:00:00 19,7 14,5 17,9 18,6 18,9 14 7 28 15 ZO 1013,2 20 0 0,0
13.10.2019 05:00:00 19,8 14,8 18,3 18,6 18,9 13 7 27 15 ZO 1013,3 20 0 0,0
13.10.2019 04:00:00 20,0 15,0 19,0 18,7 18,9 13 7 29 16 ZO 1013,8 20 0 0,0
13.10.2019 03:00:00 20,2 15,0 18,8 18,7 18,9 13 7 24 13 ZO 1014,4 20 0 0,0
13.10.2019 02:00:00 19,8 14,8 18,5 18,7 18,9 11 6 25 13 ZO 1014,7 20 0 0,0
13.10.2019 01:00:00 19,9 14,9 18,5 18,7 18,9 13 7 31 17 ZO 1014,9 20 0 0,0
13.10.2019 00:00:00 20,0 14,8 18,7 18,7 18,9 13 7 30 16 ZO 1015,1 20 0 0,0
12.10.2019 23:00:00 20,1 14,5 18,8 18,7 18,9 12 7 41 22 ZO 1015,1 20 0 0,0
12.10.2019 22:00:00 20,6 14,7 19,7 18,6 18,9 23 12 39 21 ZO 1015,1 20 0 0,0
12.10.2019 21:00:00 21,2 14,8 20,2 18,5 18,9 24 13 43 23 ZO 1015,0 20 0 0,0
12.10.2019 20:00:00 22,6 15,4 21,7 18,4 18,9 19 10 39 21 ZO 1014,9 20 0 0,0
12.10.2019 19:00:00 24,0 15,0 23,5 18,2 18,9 24 13 55 30 ZZO 1014,1 20 31 0,0
12.10.2019 18:00:00 25,2 15,5 26,5 18,0 18,9 27 15 46 25 ZZO 1014,0 20 52 0,0
12.10.2019 17:00:00 27,5 15,8 28,8 17,9 19,0 23 12 37 20 ZZO 1013,9 20 42 0,0
12.10.2019 16:00:00 27,4 16,1 30,4 17,7 18,9 14 7 33 18 Z 1014,5 20 38 0,0
12.10.2019 15:00:00 26,4 16,6 28,0 17,6 19,0 18 10 36 19 Z 1014,8 20 19 0,0
12.10.2019 14:00:00 25,6 16,4 27,2 17,5 19,0 19 11 38 21 ZZO 1015,3 20 31 0,0
12.10.2019 13:00:00 24,5 16,5 25,8 17,5 19,0 21 11 32 18 Z 1015,7 20 26 0,0
12.10.2019 12:00:00 22,3 16,6 21,0 17,5 19,0 11 6 19 11 ZZO 1016,2 20 6 0,0
12.10.2019 11:00:00 18,7 14,4 17,8 17,5 19,0 5 3 9 5 OZO 1016,2 20 1 0,0
12.10.2019 10:00:00 16,3 13,2 14,6 17,5 19,0 2 1 9 5 O 1016,2 20 0 0,0
12.10.2019 09:00:00 15,1 12,4 13,7 17,6 19,0 5 3 8 4 NNW 1015,2 20 0 0,0
12.10.2019 08:00:00 15,6 12,3 13,2 17,7 19,0 4 2 13 7 NNO 1015,0 20 0 0,0
12.10.2019 07:00:00 13,6 11,6 11,1 17,8 19,0 0 0 4 2 N 1015,3 20 0 0,0
12.10.2019 06:00:00 13,4 10,7 11,3 17,8 19,0 0 0 6 3 N 1015,1 20 0 0,0
12.10.2019 05:00:00 14,4 11,5 11,3 17,9 19,0 6 4 9 5 ONO 1015,1 20 0 0,0
12.10.2019 04:00:00 13,5 10,8 10,7 18,0 19,0 2 1 7 4 ONO 1015,8 20 0 0,0
12.10.2019 03:00:00 13,1 10,5 10,5 18,0 19,0 2 1 6 3 O 1016,6 20 0 0,0
12.10.2019 02:00:00 14,7 11,1 11,3 18,1 19,1 4 2 8 5 O 1017,1 20 0 0,0
12.10.2019 01:00:00 16,0 11,4 12,3 18,1 19,0 4 2 7 4 O 1017,5 20 0 0,0
12.10.2019 00:00:00 16,3 11,2 14,1 18,1 19,0 4 2 19 10 OZO 1017,6 20 0 0,0
11.10.2019 23:00:00 17,1 11,4 15,3 18,1 19,1 13 7 22 12 ZZO 1017,5 20 0 0,0
11.10.2019 22:00:00 17,7 11,7 15,7 18,0 19,1 12 7 24 13 ZZO 1017,4 20 0 0,0
11.10.2019 21:00:00 19,0 12,3 17,1 17,9 19,1 9 5 29 16 Z 1017,1 20 0 0,0
11.10.2019 20:00:00 21,2 12,6 19,6 17,8 19,1 15 8 28 15 Z 1016,9 20 0 0,0
11.10.2019 19:00:00 24,0 12,0 23,6 17,6 19,1 18 10 29 16 Z 1016,2 20 56 0,0
11.10.2019 18:00:00 26,4 11,3 29,6 17,4 19,1 16 9 27 14 Z 1015,9 20 60 0,0
11.10.2019 17:00:00 27,6 10,8 32,4 17,2 19,1 16 8 24 13 Z 1016,0 20 60 0,0
11.10.2019 16:00:00 27,5 10,2 33,1 17,0 19,1 13 7 22 12 Z 1016,5 20 60 0,0
11.10.2019 15:00:00 26,3 10,8 30,2 16,8 19,1 11 6 25 14 Z 1017,4 20 60 0,0
11.10.2019 14:00:00 24,3 9,8 28,3 16,7 19,1 17 9 27 14 ZO 1018,5 20 60 0,0
11.10.2019 13:00:00 22,4 9,2 25,6 16,7 19,1 14 8 29 16 Z 1019,2 20 60 0,0
11.10.2019 12:00:00 19,8 9,7 22,6 16,7 19,1 10 6 19 10 Z 1019,7 20 60 0,0
11.10.2019 11:00:00 15,5 9,4 18,1 16,8 19,1 0 0 5 3 N 1020,3 20 60 0,0
11.10.2019 10:00:00 11,8 9,4 10,2 17,0 19,1 0 0 9 5 N 1020,4 20 60 0,0
11.10.2019 09:00:00 8,5 7,7 3,7 17,1 19,2 2 1 4 2 O 1020,4 20 35 0,0
11.10.2019 08:00:00 6,2 5,5 3,2 17,2 19,2 0 0 7 4 N 1020,1 20 0 0,0
11.10.2019 07:00:00 6,9 6,0 3,5 17,4 19,1 0 0 5 3 N 1020,2 20 0 0,0
11.10.2019 06:00:00 6,9 6,0 3,8 17,5 19,2 3 2 5 3 OZO 1020,7 20 0 0,0
11.10.2019 05:00:00 7,2 6,3 3,8 17,7 19,2 0 0 5 3 N 1021,3 20 0 0,0
11.10.2019 04:00:00 7,7 6,3 4,3 17,8 19,2 2 1 4 2 O 1021,8 20 0 0,0
11.10.2019 03:00:00 8,4 7,0 5,0 17,9 19,2 0 0 4 2 N 1022,5 20 0 0,0
11.10.2019 02:00:00 9,7 8,5 6,1 18,0 19,2 4 2 7 4 OZO 1022,6 20 0 0,0
11.10.2019 01:00:00 9,6 7,9 7,0 18,1 19,2 3 2 6 3 O 1022,7 20 0 0,0
11.10.2019 00:00:00 10,3 8,6 7,2 18,2 19,2 4 2 7 4 O 1022,9 20 0 0,0
10.10.2019 23:00:00 11,4 8,6 8,0 18,3 19,2 4 2 8 4 O 1023,0 20 0 0,0
10.10.2019 22:00:00 12,2 8,7 9,0 18,3 19,2 2 1 6 3 ZZO 1022,7 20 0 0,0
10.10.2019 21:00:00 13,9 9,1 10,3 18,2 19,2 3 1 5 3 ZO 1022,6 20 0 0,0
10.10.2019 20:00:00 15,5 9,2 11,5 18,1 19,2 3 2 5 3 ZZO 1022,2 20 0 0,0
10.10.2019 19:00:00 19,6 8,9 18,1 18,0 19,2 4 2 7 4 OZO 1022,1 20 47 0,0
10.10.2019 18:00:00 20,5 9,1 20,9 17,9 19,3 5 3 16 8 O 1022,1 20 20 0,0
10.10.2019 17:00:00 22,0 8,8 21,5 17,7 19,2 4 2 13 7 WZW 1022,2 20 39 0,0
10.10.2019 16:00:00 20,1 9,6 21,6 17,5 19,2 9 5 23 13 NNW 1022,7 20 30 0,0
10.10.2019 15:00:00 21,1 8,4 21,0 17,4 19,3 12 7 24 13 NW 1022,8 20 48 0,0
10.10.2019 14:00:00 19,8 10,2 20,9 17,3 19,2 9 5 24 13 W 1023,5 20 50 0,0
10.10.2019 13:00:00 18,3 11,1 19,5 17,3 19,3 11 6 32 17 WNW 1024,3 20 44 0,0
10.10.2019 12:00:00 16,7 11,6 16,4 17,3 19,2 3 2 7 4 N 1024,8 20 57 0,0
10.10.2019 11:00:00 13,3 11,2 13,5 17,4 19,2 3 2 9 5 Z 1025,2 19 0 0,0
10.10.2019 10:00:00 12,2 10,8 11,0 17,5 19,2 6 3 11 6 NNW 1025,2 20 0 0,0
10.10.2019 09:00:00 10,4 9,8 8,8 17,6 19,3 0 0 4 2 N 1024,2 20 0 0,0
10.10.2019 08:00:00 9,0 8,1 6,6 17,7 19,3 3 2 4 2 ZO 1023,9 18 0 0,0
10.10.2019 07:00:00 9,4 8,6 7,1 17,8 19,2 2 1 4 2 ZZW 1023,6 20 0 0,0
10.10.2019 06:00:00 9,5 8,6 6,2 18,0 19,2 0 0 6 4 N 1023,4 17 0 0,0
10.10.2019 05:00:00 9,4 8,6 6,4 18,1 19,3 3 2 6 3 ZZO 1023,1 19 0 0,0
10.10.2019 04:00:00 9,7 8,6 6,6 18,2 19,3 4 2 7 4 ZW 1022,9 20 0 0,0
10.10.2019 03:00:00 10,7 9,3 7,8 18,3 19,3 3 2 8 4 WZW 1022,7 20 0 0,0
10.10.2019 02:00:00 10,5 9,3 7,7 18,4 19,3 2 1 5 3 WZW 1022,9 20 0 0,0
10.10.2019 01:00:00 11,6 9,7 8,7 18,5 19,3 0 0 6 4 N 1023,0 20 0 0,0
10.10.2019 00:00:00 13,1 11,0 10,3 18,6 19,3 3 1 5 3 WZW 1022,8 20 0 0,0
09.10.2019 23:00:00 13,8 11,1 11,8 18,7 19,3 5 3 14 8 W 1022,5 20 0 0,0
09.10.2019 22:00:00 14,6 11,2 12,2 18,7 19,3 7 4 17 9 W 1022,3 20 0 0,0
09.10.2019 21:00:00 15,4 10,2 13,1 18,7 19,3 6 3 10 5 W 1021,7 20 0 0,0

tt = temperatuur
td = dauwpunt
tt 5cm = temperatuur 5cm
tt -20cm = temperatuur -20cm
tt -100cm = temperatuur -100cm
ff = windsnelheid
fx = windstoten
dd = windrichting
ppp = luchtdruk
vv = zicht
sd = Zonneschijnduur
rr = neerslag

Weerstations in de omgeving